AirNav   Everest Fuels
 
 1560 users online  

0K6 Dobie's Airport
Inola, Oklahoma, USA

GOING TO INOLA?


FAA INFORMATION EFFECTIVE 01 DECEMBER 2022

Location

FAA Identifier: 0K6
Lat/Long: 36-10-45.6500N 095-34-48.9900W
36-10.760833N 095-34.816500W
36.1793472,-95.5802750
(estimated)
Elevation: 610 ft. / 186 m (estimated)
Variation: 06E (1985)
From city: 4 miles NW of INOLA, OK
Time zone: UTC -6 (UTC -5 during Daylight Saving Time)
Zip code: 74036

Airport Operations

Airport use: Open to the public
Activation date: 12/1983
Control tower: no
ARTCC: KANSAS CITY CENTER
FSS: MC ALESTER FLIGHT SERVICE STATION
NOTAMs facility: MLC (NOTAM-D service available)
Attendance: IREG
Wind indicator: yes
Segmented circle: no

Airport Communications

CTAF: 122.9
WX AWOS-3P at GCM (8 nm NE): 119.925 (918-343-0184)
WX AWOS-3PT at H71 (12 nm E): 120.1 (918-476-0517)
WX ASOS at TUL (15 nm W): PHONE 918-831-6772

Nearby radio navigation aids

VOR radial/distance  VOR name  Freq  Var
TULr088/10.1TULSA VORTAC114.4008E
OKMr017/32.3OKMULGEE VOR/DME114.9008E

Airport Services

Runway Information

Runway 17/35

Dimensions: 1575 x 150 ft. / 480 x 46 m
Surface: turf, in fair condition
RUNWAY 17  RUNWAY 35
Traffic pattern: leftright
Obstructions: 20 ft. trees, 80 ft. left and right of centerline4 ft. fence, 75 ft. right of centerline

Airport Ownership and Management from official FAA records

Ownership: Privately-owned
Owner: LILLIAN HAIL
14157 E. 580 ROAD
INOLA, OK 74036
Phone 918-636-3179
Manager: GREG DIERKS
14157 E. 580 ROAD
INOLA, OK 74036
Phone (918) 697-3263

Airport Operational Statistics

Aircraft based on the field: 9
Single engine airplanes: 2
Helicopters: 6
Ultralights: 1
    
Aircraft operations: 100/year *
100% local general aviation
* for 12-month period ending 20 February 2020

Additional Remarks

FOR CD CTC TULSA APCH AT 918-831-6714/6720.

Instrument Procedures

There are no published instrument procedures at 0K6.

Some nearby airports with instrument procedures:

KGCM - Claremore Regional Airport (8 nm NE)
H71 - Mid-America Industrial Airport (12 nm E)
KTUL - Tulsa International Airport (15 nm W)
H68 - Hefner-Easley Airport (17 nm SE)
KRVS - Tulsa Riverside Airport (21 nm SW)
 
Loc | Ops | Rwys | IFR | FBO | Links
Com | Nav | Svcs | Stats | Notes
Area around 0K6 (Dobie's Airport)
 
Road maps at: MapQuest Bing Google
 
Aerial photo
WARNING: Photo may not be current or correct
Aerial photo of 0K6 (Dobie's Airport)
Photo by Brent Butler
Photo taken 16-Jan-2011

Do you have a better or more recent aerial photo of Dobie's Airport that you would like to share? If so, please send us your photo.

 
Sectional chart

 
Airport distance calculator
Flying to Dobie's Airport? Find the distance to fly.

From to 0K6

Sunrise and sunset
Times for 08-Dec-2022
 Local
(UTC-6)
 Zulu
(UTC)
Morning civil twilight06:5312:53
Sunrise07:2213:22
Sunset17:0723:07
Evening civil twilight17:3523:35

Current date and time
Zulu (UTC)  08-Dec-2022 20:34:11
Local (UTC-6)  08-Dec-2022 14:34:11
 
METAR
KGCM 
9nm NE 
082015Z AUTO 26003KT M1/4SM FG OVC002 14/14 A3008 RMK AO2
KH71 
12nm E 
082015Z AUTO 00000KT 1/2SM FG OVC003 14/14 A3007 RMK AO2
KTUL 
15nm W 
081953Z 00000KT 1 1/2SM BR OVC005 14/13 A3008 RMK AO2 SLP185 T01390128
TAF
KTUL 
15nm W 
081959Z 0820/0918 00000KT 4SM BR OVC005 FM090200 VRB03KT 3SM BR OVC002 TEMPO 0908/0912 1/2SM FG VV001 FM091300 32006KT 5SM BR SCT005 BKN250 FM091600 02005KT P6SM SCT015 BKN250
NOTAMs
Click for the latest NOTAMs
NOTAMs are issued by the DoD/FAA and will open in a separate window not controlled by AirNav.

 

 
 

Would you like to see your business listed on this page?

 If your business provides an interesting product or service to pilots, flight crews, aircraft, or users of the Dobie's Airport, you should consider listing it here.  To start the listing process, click on the button below
 
Add a business
 

Other Pages about Dobie's Airport

Update a link
 
Copyright © AirNav, LLC. All rights reserved. Privacy Policy  Contact